Meteo Giornale » Osservazioni meteo Stati Uniti (USA) » Wilkes-Barre-Scranton
ore: 15:54 - Osservazioni Meteo Wilkes-Barre-Scranton
Lat. 41° 20' N Lon. 75° 43' W Alt. 293 metri s.l.m.
28 °C
Molto Nuvoloso
Temp. 24 Ore
20 °C
28 °C
Nord
0 Km/h
Dew point 22 °C
Umidità 69 %
Visibilità 10 Km
Il sole sorge alle ore 06:29
Il sole tramonta alle ore 19:36
| Data e Ora | Cielo e Fenomeni | T °C | DP °C | Um. % | Pres. hPa | Vis. km | Vento km/h | |
|---|---|---|---|---|---|---|---|---|
| Oggi h: 15:54 | Molto Nuvoloso | 28 | 22 | 69 | 1014 | 10 | N 0 | |
| Oggi h: 14:54 | Molto Nuvoloso | 27 | 22 | 74 | 1015 | 10 | O/NO 9.3 | |
| Oggi h: 13:54 | Molto Nuvoloso | 27 | 22 | 74 | 1015 | 10 | O/SO 13 | |
| Oggi h: 12:54 | Molto Nuvoloso | 27 | 22 | 74 | 1015 | 10 | SO 14.8 | |
| Oggi h: 12:35 | Molto Nuvoloso | 26 | 22 | 78 | 1015 | 10 | O/SO 11.1 | |
| Oggi h: 11:54 | Coperto | 24 | 22 | 88 | 1016 | 10 | N 5.5 | |
| Oggi h: 11:01 | Coperto | 23 | 22 | 94 | 1016 | 5 | N 0 | |
| Oggi h: 10:54 | Coperto | 23 | 21 | 88 | 1016 | 2 | N 5.5 | |
| Oggi h: 10:38 | Coperto | 23 | 22 | 94 | 1016 | 2 | N 0 | |
| Oggi h: 10:12 | Molto Nuvoloso | 22 | 21 | 94 | 1016 | 2 | N 5.5 | |
| Oggi h: 09:54 | Foschia | 22 | 22 | 100 | 1016 | 2 | N 0 | |
| Oggi h: 09:47 | Foschia | 22 | 21 | 94 | 1016 | 2 | N 0 | |
| Oggi h: 09:40 | Pioggia Foschia | 22 | 21 | 94 | 1016 | 2 | N 0 | |
| Oggi h: 09:31 | Pioggia Foschia | 22 | 21 | 94 | 1016 | 2 | N 5.5 | |
| Oggi h: 09:24 | Pioggia Foschia | 22 | 21 | 94 | 1016 | 5 | N 0 | |
| Oggi h: 09:13 | Pioggia Foschia | 22 | 21 | 94 | 1016 | 5 | N 0 | |
| Oggi h: 09:07 | Pioggia Foschia | 22 | 21 | 94 | 1017 | 2 | N 0 | |
| Oggi h: 08:58 | Foschia | 22 | 21 | 94 | 1016 | 2 | N 5.5 | |
| Oggi h: 08:54 | Foschia | 22 | 21 | 94 | 1016 | 5 | N 5.5 | |
| Oggi h: 08:10 | Foschia | 22 | 21 | 94 | 1016 | 6 | N 5.5 | |
| Oggi h: 07:54 | Foschia | 21 | 21 | 100 | 1016 | 6 | O/SO 7.4 | |
| Oggi h: 07:24 | Foschia | 21 | 21 | 100 | 1016 | 5 | O 7.4 | |
| Oggi h: 07:02 | Foschia | 21 | 21 | 100 | 1016 | 2 | N 0 | |
| Oggi h: 06:54 | Foschia | 21 | 21 | 100 | 1016 | 5 | N 5.5 | |
| Oggi h: 06:44 | Foschia | 21 | 21 | 100 | 1016 | 8 | N 5.5 | |
| Oggi h: 06:37 | Foschia | 21 | 21 | 100 | 1016 | 10 | N 5.5 | |
| Oggi h: 05:58 | Pioggia Foschia | 21 | 20 | 94 | 1016 | 5 | N 5.5 | |
| Oggi h: 05:54 | Pioggia Foschia | 21 | 20 | 94 | 1016 | 2 | N 5.5 | |
| Oggi h: 05:46 | Pioggia Foschia | 20 | 20 | 100 | 1016 | 5 | N 0 | |
| Oggi h: 05:30 | Pioggia Foschia | 21 | 20 | 94 | 1017 | 6 | N 0 | |
| Oggi h: 04:54 | Coperto | 21 | 20 | 94 | 1016 | 11 | N 0 | |
| Oggi h: 04:49 | Coperto | 21 | 20 | 94 | 1016 | 11 | N 0 | |
| Oggi h: 03:54 | Foschia | 20 | 20 | 100 | 1017 | 5 | N 0 | |
| Oggi h: 02:54 | Foschia | 20 | 19 | 93 | 1017 | 8 | N 0 | |
| Oggi h: 02:08 | Molto Nuvoloso | 21 | 19 | 88 | 1017 | 13 | N 5.5 | |
| Oggi h: 01:54 | Poco Nuvoloso | 21 | 19 | 88 | 1017 | 11 | N 5.5 | |
| Oggi h: 01:05 | Pioggia | 21 | 20 | 94 | 1018 | 11 | N 5.5 | |
| Oggi h: 00:54 | Pioggia | 21 | 20 | 94 | 1018 | 11 | N 5.5 | |
| Oggi h: 00:32 | Foschia | 21 | 20 | 94 | 1018 | 10 | N 0 | |
| Ieri h: 23:54 | Sereno | 21 | 20 | 94 | 1018 | 14 | N 0 | |
| Ieri h: 22:54 | Pioggia Foschia | 20 | 20 | 100 | 1018 | 8 | N 0 | |
| Ieri h: 22:10 | Pioggia Foschia | 20 | 20 | 100 | 1018 | 10 | N 0 | |
| Ieri h: 21:54 | Foschia | 20 | 20 | 100 | 1018 | 10 | N 0 | |
| Ieri h: 21:19 | Coperto | 21 | 19 | 88 | 1018 | 10 | N 0 | |
| Ieri h: 20:54 | Coperto | 20 | 19 | 93 | 1018 | 10 | N 5.5 | |
| Ieri h: 19:54 | Foschia | 20 | 20 | 100 | 1018 | 10 | N 0 | |
| Ieri h: 18:54 | Foschia | 21 | 20 | 94 | 1019 | 8 | N 0 | |
| Ieri h: 18:35 | Foschia | 20 | 20 | 100 | 1019 | 8 | N 0 | |
| Ieri h: 18:03 | Coperto | 21 | 19 | 88 | 1019 | 14 | N 0 | |
| Ieri h: 17:54 | Coperto | 21 | 19 | 88 | 1019 | 10 | N 0 | |
| Ieri h: 17:36 | Pioggia Foschia | 21 | 19 | 88 | 1019 | 6 | N 0 | |
| Ieri h: 17:27 | Pioggia Foschia | 20 | 19 | 93 | 1019 | 10 | N 5.5 | |
| Ieri h: 17:08 | Pioggia Foschia | 20 | 19 | 93 | 1019 | 3 | N 0 | |
| Ieri h: 16:54 | Coperto | 21 | 19 | 88 | 1019 | 10 | N 5.5 | |
| Ieri h: 16:35 | Coperto | 21 | 19 | 88 | 1019 | 10 | N 0 | |



